Regional Weather Roundup
Issued by NWS Little Rock, AR

Home | Current Version | Previous Version | Graphics & Text | Print | Product List | Glossary On
Versions: 1 2 3 4 5 6 7 8 9 10 11 12 13 14 15 16 17 18 19 20 21 22 23 24 25 26 27 28 29 30 31 32 33 34 35 36 37 38 39 40 41 42 43 44 45 46 47 48 49 50
000
ASUS44 KLZK 311205
RWRLZK

WEATHER ROUNDUP FOR ARKANSAS
NATIONAL WEATHER SERVICE LITTLE ROCK AR
700 AM CDT TUE MAY 31 2016

NOTE: "FAIR" INDICATES FEW OR NO CLOUDS BELOW 12,000 FEET WITH NO
SIGNIFICANT WEATHER AND/OR OBSTRUCTIONS TO VISIBILITY.

ARZ001-003-010-029-311300-
NORTHWEST ARKANSAS

CITY           SKY/WX    TMP DP  RH WIND       PRES   REMARKS
FAYETTEVILLE   CLOUDY    59  59 100 CALM      29.94F FOG
6HR MIN TEMP:  58; 6HR MAX TEMP:  63;

FORT SMITH     CLEAR     65  62  90 E3        29.93R
6HR MIN TEMP:  65; 6HR MAX TEMP:  70;

HARRISON       CLOUDY    64  62  93 E5        29.97S
6HR MIN TEMP:  63; 6HR MAX TEMP:  65;

BENTONVILLE    CLOUDY    64  59  82 CALM      29.95S
6HR MIN TEMP:  63; 6HR MAX TEMP:  66;

ROGERS         MOSUNNY   64  63  96 SE6       29.96S
6HR MIN TEMP:  63; 6HR MAX TEMP:  66; 6HR PCP:  0.30;

SILOAM SPGS    CLOUDY    63  55  77 CALM      29.95S
6HR MIN TEMP:  63; 6HR MAX TEMP:  64;

HIGHFILL       CLOUDY    63  63 100 CALM      29.95R
6HR MIN TEMP:  61; 6HR MAX TEMP:  64; 6HR PCP: TRACE;

SPRINGDALE     SUNNY     64  63  94 CALM      29.96F
$$

ARZ004-005-016-311300-
NORTH CENTRAL ARKANSAS

CITY           SKY/WX    TMP DP  RH WIND       PRES   REMARKS
BATESVILLE     CLOUDY    66  64  94 CALM      29.99S
6HR MIN TEMP:  64; 6HR MAX TEMP:  66; 6HR PCP:  0.05;

FLIPPIN        CLOUDY   N/A N/A N/A CALM      29.94S
MTN HOME       CLOUDY    65  64  97 CALM      29.96S
6HR MIN TEMP:  64; 6HR MAX TEMP:  66; 6HR PCP: TRACE;

$$

ARZ040-041-311300-
WEST CENTRAL ARKANSAS

CITY           SKY/WX    TMP DP  RH WIND       PRES   REMARKS
MENA           CLOUDY    68  66  94 CALM      29.96R
MOUNT IDA      CLOUDY    65  63  93 CALM      29.93R FOG
6HR MIN TEMP:  63; 6HR MAX TEMP:  66;

$$

ARZ009-017-025-026-028-311300-
NORTHEAST ARKANSAS

CITY           SKY/WX    TMP DP  RH WIND       PRES   REMARKS
CORNING        LGT RAIN  68  68 100 NE10      29.97S
JONESBORO      LGT RAIN  69  66  90 S7        29.99R FOG
6HR MIN TEMP:  69; 6HR MAX TEMP:  70; 6HR PCP:  0.04;

NEWPORT        LGT RAIN  70  70 100 S6        30.00R
6HR MIN TEMP:  68; 6HR MAX TEMP:  70; 6HR PCP:  0.01;

WALNUT RIDGE   CLOUDY    70  63  78 S9        29.99R
6HR MIN TEMP:  68; 6HR MAX TEMP:  70;

BLYTHEVILLE    CLOUDY    71  67  87 NE3       29.97R
6HR MIN TEMP:  71; 6HR MAX TEMP:  76; 6HR PCP: TRACE;

$$

ARZ022-023-033-042-044-311300-
CENTRAL ARKANSAS

CITY           SKY/WX    TMP DP  RH WIND       PRES   REMARKS
LITTLE ROCK    PTSUNNY   69  65  86 E5        29.95S
6HR MIN TEMP:  66; 6HR MAX TEMP:  69;

N LITTLE ROCK    N/A     66  65  97 SE3       29.93S
6HR MIN TEMP:  64; 6HR MAX TEMP:  66;

JACKSONVILLE   CLOUDY    66  66 100 E3        29.95R
6HR MIN TEMP:  64; 6HR MAX TEMP:  67; 6HR PCP: TRACE;

SEARCY         CLOUDY    68  67  96 E6        29.98F
6HR MIN TEMP:  65; 6HR MAX TEMP:  68; 6HR PCP:  0.02;

HOT SPRINGS    CLOUDY    65  63  93 CALM      29.95S
6HR MIN TEMP:  64; 6HR MAX TEMP:  66; 6HR PCP: TRACE;

RUSSELLVILLE   MOSUNNY   66  64  93 CALM      29.95R
6HR MIN TEMP:  65; 6HR MAX TEMP:  67;

CLINTON        FAIR      64  64 100 CALM      29.97S
$$

ARZ036-311300-
EAST ARKANSAS

CITY           SKY/WX    TMP DP  RH WIND       PRES   REMARKS
WEST MEMPHIS   LGT RAIN  68  67  96 SE7       29.97F
6HR MIN TEMP:  68; 6HR MAX TEMP:  71; 6HR PCP:  0.26;

$$

ARZ050-053-066-070-073-311300-
SOUTHWEST ARKANSAS

CITY           SKY/WX    TMP DP  RH WIND       PRES   REMARKS
ARKADELPHIA    LGT RAIN  66  66 100 CALM      29.94F FOG
6HR MIN TEMP:  65; 6HR MAX TEMP:  66; 6HR PCP:  0.02;

CAMDEN         PTSUNNY   66  64  94 CALM      29.94R FOG
TEXARKANA      PTCLDY    67  66  97 SE3       29.92R FOG
6HR MIN TEMP:  67; 6HR MAX TEMP:  70; 6HR PCP: TRACE;

EL DORADO      FOG       67  67 100 CALM      29.93S VSB 1/2
6HR MIN TEMP:  67; 6HR MAX TEMP:  70; 6HR PCP:  0.31;

DE QUEEN       CLOUDY    67  66  97 E6        29.92R
6HR MIN TEMP:  66; 6HR MAX TEMP:  70;

$$

ARZ056-057-069-311300-
SOUTHEAST ARKANSAS

CITY           SKY/WX    TMP DP  RH WIND       PRES   REMARKS
STUTTGART      CLOUDY    70  63  78 E7        29.97S
6HR MIN TEMP:  68; 6HR MAX TEMP:  70; 6HR PCP:  0.01;

MONTICELLO     CLOUDY    69  67  93 CALM      29.95R
6HR MIN TEMP:  68; 6HR MAX TEMP:  70; 6HR PCP:  0.49;


$$





USA.gov is the U.S. government's official web portal to all federal, state and local government web resources and services.